Tracking 19709 objects as of 17-Jun-2019
HD Live streaming from Space Station
objects crossing your sky now

FLOCK 3K 7

Track FLOCK 3K 7 now!
10-day predictions
FLOCK 3K 7 is classified as:


NORAD ID: 43902
Int'l Code: 2018-111AC
Perigee: 484.2 km
Apogee: 515.8 km
Inclination: 97.3 °
Period: 94.5 minutes
Semi major axis: 6871 km
RCS: Unknown
Launch date: December 27, 2018
Source: United States (US)
Launch site: VOSTOCHNY COSMODROME (VOSTO)
aabbcc
Your satellite tracking list
Your tracking list is empty




NASA's NSSDC Master Catalog

Two Line Element Set (TLE):
1 43902U 18111AC  19167.77987480 +.00000800 +00000-0 +35396-4 0  9992
2 43902 097.2904 073.0447 0022944 003.6858 356.4544 15.24307980026151
Source of the keplerian elements: AFSPC